RH
18 20 20 18 20 20 22 23 22 19 21 20 21 22 23 22 23 25 27 30 32 33 35 35 36 38 40 39 38 38 33 33 25 26 28 28 25 24 23 21 19 16 13 10
18 21 19 20 19 20 20 20 22 22 21 22 24 24 22 22 23 24 27 32 36 38 38 39 41 43 44 39 39 39 32 28 28 27 28 30 30 29 28 27 22 20 17 13
17 17 18 20 18 19 19 17 20 23 24 23 23 23 24 26 26 27 30 34 36 38 39 41 44 47 43 40 37 35 31 30 30 26 29 31 32 32 30 29 26 23 19 17
18 18 18 19 19 20 19 18 16 18 24 28 25 26 24 32 27 23 29 34 39 40 43 47 48 44 41 36 38 34 32 32 29 30 31 31 30 29 26 25 23 20 19 17
20 19 19 19 19 17 17 18 17 17 20 22 26 29 24 31 32 35 37 38 42 45 50 52 47 43 38 40 40 38 37 36 33 32 34 34 33 33 29 24 19 16 14 13
21 19 19 20 18 17 17 18 24 24 24 26 19 29 31 37 37 37 37 42 46 51 55 50 46 38 41 44 45 41 39 39 37 35 37 38 35 31 26 20 16 15 15 14
22 22 19 20 19 19 20 22 28 24 33 32 26 37 35 36 38 40 42 46 52 53 50 46 40 44 47 48 47 42 40 40 39 37 39 36 31 26 23 18 17 16 16 17
25 26 20 23 25 25 22 27 42 33 37 28 32 42 39 37 40 44 45 44 43 44 44 42 47 49 50 51 45 41 43 42 37 36 34 30 26 21 18 18 20 23 26 29
34 29 23 24 25 24 32 34 34 42 46 41 35 38 36 35 38 40 39 38 43 46 47 49 47 49 50 46 44 44 44 41 38 35 30 25 20 19 19 23 29 34 38 44
34 36 27 25 25 25 30 33 40 48 46 42 37 36 40 41 43 42 38 43 45 47 50 46 49 53 52 44 46 42 40 41 38 33 28 22 19 21 27 36 43 49 60 74
36 36 35 30 28 30 32 33 40 43 47 55 58 43 34 39 42 39 39 43 45 44 48 54 59 59 52 47 46 42 39 37 33 28 24 22 23 31 41 50 60 76 81 81
36 40 43 33 33 32 34 34 38 48 41 58 58 50 35 41 42 40 39 42 43 50 57 60 63 64 53 48 44 37 36 32 27 24 23 26 33 44 55 74 84 86 85 83
38 43 44 37 33 32 32 32 36 41 45 52 62 52 37 41 43 43 41 44 50 59 62 65 66 59 52 44 38 39 35 29 25 25 30 38 47 59 84 88 89 91 89 89
40 44 42 50 35 37 36 37 36 38 48 46 52 43 43 44 44 41 45 52 58 65 66 65 59 55 49 44 41 36 31 28 27 34 45 53 65 86 87 90 92 93 94 94
47 47 44 44 41 40 40 42 42 42 42 45 41 44 41 43 43 47 54 60 65 65 67 61 54 54 46 43 38 31 28 29 38 51 63 76 92 91 92 94 91 93 93 96
44 49 45 45 46 46 47 43 42 42 42 45 44 46 42 45 49 55 58 63 61 64 63 60 59 50 49 44 31 28 30 40 54 79 86 95 96 92 94 94 94 97 94 91
48 53 54 56 55 53 44 36 33 33 37 35 37 37 43 52 56 60 67 66 67 69 67 60 53 50 48 35 29 32 38 53 83 92 95 95 94 97 96 95 95 97 97 96
58 60 60 65 62 66 53 50 45 51 50 44 43 51 55 56 58 64 66 69 70 62 57 58 53 51 38 30 32 36 50 74 94 95 92 93 95 97 99 98 96 97 96 94
59 62 68 71 72 65 59 59 62 62 66 61 58 57 57 60 64 68 67 62 62 62 59 53 49 41 33 32 34 44 59 90 95 95 94 95 97 98 98 96 98 98 98 94
64 64 68 71 68 71 65 67 62 65 75 62 59 61 63 63 65 62 59 67 64 59 52 48 43 35 33 33 38 50 63 95 97 95 93 93 96 98 97 91 89 94 90 93
76 72 75 79 77 72 63 64 62 64 60 60 59 59 60 61 62 60 55 57 57 52 49 45 37 34 34 37 45 55 65 94 98 96 93 93 96 95 90 90 85 93 96 96
92 91 87 86 86 82 62 63 60 56 53 53 57 59 59 60 57 57 51 49 48 48 46 42 37 37 38 42 51 56 67 95 98 97 92 92 93 94 94 87 88 90 94 97
94 86 82 79 76 64 63 57 58 60 59 57 59 54 47 47 48 48 48 47 48 48 46 39 38 37 42 50 55 61 80 97 98 97 92 94 92 91 88 87 90 91 89 94
84 80 83 79 74 69 64 60 56 54 55 54 54 49 46 44 46 45 46 46 47 46 41 39 38 40 48 52 58 68 92 97 97 98 97 95 90 87 88 89 93 95 91 86
78 82 81 81 80 74 73 66 54 52 50 53 51 48 45 42 43 43 43 47 46 42 41 40 38 43 50 56 64 80 95 97 95 94 93 88 87 87 85 86 85 87 89 86
77 81 81 80 78 77 74 67 57 53 49 48 49 48 41 39 41 42 44 47 44 43 42 40 38 45 49 55 65 84 89 90 90 89 88 84 82 83 84 84 81 74 68 62